QPF
0.07 0.12 0.17 0.14 0.14 0.12 0.12 0.10 0.08 0.08 0.08 0.09 0.08 0.06 0.05 0.05 0.07 0.04 0.04 0.05 0.04 0.02 0.02 0.01 0.01 0.01 0.01 0.01 0.01 0.00 0.00 0.00 0.01 0.01 0.01 0.01 0.01 0.01
0.04 0.07 0.10 0.11 0.13 0.14 0.12 0.10 0.09 0.08 0.07 0.07 0.07 0.06 0.05 0.05 0.05 0.03 0.04 0.05 0.03 0.02 0.02 0.02 0.01 0.01 0.01 0.01 0.00 0.00 0.00 0.00 0.00 0.00 0.01 0.01 0.01 0.01
0.04 0.04 0.05 0.07 0.10 0.13 0.13 0.11 0.10 0.10 0.09 0.07 0.07 0.07 0.07 0.07 0.06 0.04 0.02 0.03 0.04 0.04 0.03 0.03 0.02 0.01 0.01 0.01 0.01 0.01 0.01 0.00 0.00 0.00 0.00 0.00 0.01 0.01
0.05 0.05 0.05 0.06 0.08 0.10 0.14 0.12 0.11 0.12 0.10 0.09 0.08 0.08 0.09 0.07 0.05 0.03 0.02 0.02 0.02 0.05 0.04 0.03 0.03 0.01 0.01 0.01 0.01 0.02 0.02 0.01 0.00 0.00 0.00 0.00 0.00 0.01
0.05 0.05 0.05 0.05 0.07 0.08 0.09 0.11 0.10 0.09 0.11 0.09 0.07 0.07 0.07 0.06 0.05 0.03 0.03 0.03 0.01 0.03 0.05 0.04 0.04 0.03 0.01 0.01 0.00 0.00 0.00 0.00 0.00 0.00 0.00 0.00 0.00 0.01
0.04 0.04 0.04 0.04 0.04 0.05 0.05 0.07 0.07 0.08 0.08 0.07 0.08 0.09 0.09 0.07 0.06 0.04 0.04 0.04 0.02 0.02 0.03 0.04 0.04 0.03 0.02 0.01 0.01 0.00 0.00 0.00 0.00 0.00 0.00 0.00 0.01 0.01
0.04 0.03 0.03 0.02 0.02 0.03 0.02 0.04 0.06 0.06 0.06 0.06 0.08 0.10 0.09 0.09 0.07 0.05 0.05 0.05 0.04 0.02 0.03 0.03 0.03 0.03 0.03 0.02 0.02 0.01 0.00 0.00 0.00 0.00 0.00 0.00 0.00 0.01
0.05 0.05 0.03 0.03 0.03 0.02 0.03 0.03 0.05 0.05 0.06 0.07 0.06 0.07 0.07 0.08 0.08 0.07 0.06 0.07 0.06 0.04 0.04 0.04 0.03 0.03 0.04 0.03 0.04 0.03 0.01 0.00 0.01 0.01 0.01 0.01 0.00 0.00
0.05 0.06 0.04 0.04 0.04 0.03 0.03 0.03 0.04 0.04 0.05 0.06 0.06 0.06 0.07 0.07 0.08 0.07 0.07 0.07 0.06 0.04 0.06 0.05 0.04 0.04 0.03 0.03 0.04 0.03 0.02 0.01 0.00 0.01 0.01 0.01 0.00 0.00
0.06 0.06 0.05 0.06 0.06 0.05 0.05 0.05 0.04 0.03 0.04 0.03 0.04 0.06 0.06 0.07 0.08 0.08 0.10 0.09 0.07 0.05 0.06 0.06 0.04 0.04 0.04 0.04 0.04 0.03 0.02 0.02 0.01 0.01 0.01 0.01 0.01 0.01
0.04 0.05 0.05 0.05 0.07 0.07 0.08 0.07 0.06 0.04 0.04 0.04 0.02 0.03 0.04 0.06 0.07 0.07 0.08 0.09 0.08 0.07 0.06 0.06 0.05 0.06 0.06 0.05 0.05 0.05 0.04 0.03 0.02 0.02 0.01 0.01 0.01 0.01
0.03 0.04 0.06 0.08 0.09 0.11 0.12 0.14 0.12 0.07 0.05 0.05 0.04 0.02 0.02 0.03 0.04 0.06 0.08 0.09 0.08 0.08 0.07 0.08 0.07 0.06 0.06 0.05 0.05 0.06 0.06 0.05 0.04 0.03 0.02 0.02 0.01 0.01
0.02 0.04 0.07 0.10 0.10 0.12 0.13 0.12 0.12 0.10 0.07 0.05 0.05 0.03 0.02 0.02 0.03 0.04 0.05 0.06 0.06 0.06 0.07 0.08 0.07 0.07 0.07 0.05 0.05 0.05 0.05 0.05 0.06 0.06 0.05 0.03 0.02 0.02
0.03 0.04 0.05 0.07 0.08 0.07 0.06 0.06 0.07 0.08 0.06 0.04 0.05 0.05 0.04 0.04 0.04 0.03 0.03 0.04 0.06 0.06 0.06 0.07 0.07 0.07 0.07 0.05 0.04 0.04 0.05 0.05 0.05 0.05 0.05 0.05 0.04 0.03
0.03 0.04 0.04 0.04 0.05 0.04 0.04 0.04 0.04 0.05 0.05 0.05 0.05 0.05 0.05 0.06 0.06 0.05 0.05 0.05 0.05 0.05 0.05 0.05 0.05 0.06 0.06 0.05 0.04 0.04 0.05 0.06 0.05 0.04 0.04 0.04 0.05 0.04
0.02 0.04 0.04 0.03 0.02 0.02 0.02 0.02 0.02 0.03 0.04 0.05 0.04 0.04 0.04 0.06 0.06 0.06 0.06 0.06 0.06 0.05 0.06 0.06 0.06 0.06 0.06 0.05 0.05 0.05 0.05 0.05 0.05 0.04 0.04 0.04 0.05 0.05
0.02 0.03 0.04 0.03 0.02 0.02 0.02 0.02 0.03 0.03 0.03 0.03 0.03 0.03 0.03 0.04 0.04 0.05 0.06 0.05 0.06 0.06 0.06 0.07 0.08 0.08 0.08 0.08 0.07 0.06 0.06 0.05 0.04 0.04 0.04 0.04 0.04 0.04
0.02 0.02 0.03 0.03 0.03 0.03 0.02 0.02 0.03 0.04 0.04 0.03 0.02 0.02 0.03 0.04 0.04 0.04 0.04 0.04 0.05 0.06 0.07 0.08 0.08 0.09 0.08 0.07 0.06 0.05 0.05 0.05 0.04 0.05 0.06 0.05 0.04 0.03
0.02 0.02 0.02 0.03 0.03 0.03 0.03 0.02 0.03 0.04 0.04 0.02 0.02 0.02 0.02 0.03 0.04 0.05 0.04 0.04 0.04 0.04 0.05 0.06 0.08 0.09 0.08 0.06 0.05 0.05 0.06 0.07 0.07 0.06 0.07 0.06 0.05 0.03
0.02 0.03 0.03 0.04 0.05 0.05 0.05 0.04 0.04 0.03 0.03 0.03 0.02 0.02 0.02 0.03 0.03 0.04 0.04 0.05 0.04 0.04 0.05 0.05 0.06 0.07 0.07 0.06 0.05 0.04 0.06 0.07 0.07 0.07 0.07 0.07 0.06 0.04
0.02 0.02 0.03 0.04 0.06 0.05 0.05 0.05 0.04 0.04 0.03 0.04 0.04 0.04 0.03 0.03 0.03 0.03 0.04 0.04 0.04 0.05 0.05 0.05 0.05 0.05 0.06 0.06 0.05 0.04 0.04 0.04 0.04 0.04 0.05 0.05 0.05 0.05
0.02 0.02 0.02 0.04 0.05 0.05 0.05 0.04 0.04 0.04 0.04 0.04 0.04 0.04 0.04 0.04 0.03 0.03 0.04 0.04 0.04 0.05 0.05 0.04 0.05 0.06 0.05 0.04 0.04 0.03 0.04 0.04 0.03 0.02 0.02 0.02 0.03 0.03
0.03 0.02 0.02 0.03 0.03 0.03 0.03 0.04 0.04 0.04 0.03 0.03 0.03 0.03 0.03 0.03 0.03 0.03 0.04 0.04 0.04 0.04 0.05 0.05 0.05 0.06 0.06 0.05 0.05 0.05 0.04 0.03 0.03 0.02 0.01 0.01 0.01 0.01
MSLP
1010.97 1011.15 1011.45 1011.85 1012.31 1012.82 1013.31 1013.78 1014.19 1014.53 1014.82 1015.06 1015.26 1015.45 1015.65 1015.88 1016.15 1016.47 1016.84 1017.25 1017.69 1018.14 1018.58 1018.97 1019.32 1019.61 1019.84 1020.01 1020.14 1020.24 1020.32 1020.41 1020.49 1020.58 1020.67 1020.76 1020.83 1020.90
1011.18 1011.27 1011.47 1011.76 1012.13 1012.55 1013.00 1013.44 1013.86 1014.25 1014.59 1014.88 1015.13 1015.36 1015.58 1015.80 1016.04 1016.31 1016.63 1016.98 1017.36 1017.76 1018.17 1018.57 1018.93 1019.26 1019.55 1019.78 1019.98 1020.14 1020.28 1020.39 1020.49 1020.58 1020.64 1020.70 1020.73 1020.76
1011.43 1011.45 1011.55 1011.73 1012.00 1012.34 1012.73 1013.14 1013.56 1013.97 1014.35 1014.69 1014.99 1015.25 1015.48 1015.70 1015.92 1016.15 1016.40 1016.69 1017.01 1017.36 1017.73 1018.12 1018.49 1018.84 1019.17 1019.46 1019.71 1019.93 1020.11 1020.25 1020.36 1020.44 1020.49 1020.51 1020.52 1020.51
1011.68 1011.63 1011.65 1011.74 1011.92 1012.17 1012.50 1012.87 1013.27 1013.68 1014.08 1014.45 1014.78 1015.07 1015.32 1015.53 1015.72 1015.92 1016.12 1016.36 1016.62 1016.93 1017.26 1017.62 1017.98 1018.35 1018.70 1019.02 1019.31 1019.56 1019.77 1019.93 1020.05 1020.14 1020.18 1020.19 1020.18 1020.17
1011.91 1011.80 1011.75 1011.76 1011.85 1012.03 1012.29 1012.62 1012.99 1013.39 1013.78 1014.16 1014.50 1014.80 1015.04 1015.25 1015.42 1015.59 1015.76 1015.95 1016.17 1016.43 1016.72 1017.05 1017.40 1017.75 1018.10 1018.43 1018.73 1019.00 1019.23 1019.41 1019.55 1019.65 1019.71 1019.74 1019.74 1019.74
1012.09 1011.93 1011.82 1011.78 1011.80 1011.92 1012.12 1012.40 1012.73 1013.09 1013.46 1013.82 1014.14 1014.42 1014.66 1014.84 1015.00 1015.14 1015.28 1015.44 1015.62 1015.85 1016.11 1016.40 1016.71 1017.04 1017.36 1017.68 1017.97 1018.24 1018.47 1018.67 1018.84 1018.97 1019.08 1019.15 1019.20 1019.24
1012.22 1012.03 1011.88 1011.79 1011.78 1011.85 1012.00 1012.22 1012.50 1012.82 1013.14 1013.45 1013.73 1013.97 1014.17 1014.32 1014.46 1014.58 1014.70 1014.83 1014.99 1015.18 1015.41 1015.66 1015.92 1016.20 1016.48 1016.76 1017.02 1017.27 1017.51 1017.73 1017.94 1018.12 1018.29 1018.43 1018.56 1018.67
1012.34 1012.11 1011.94 1011.82 1011.78 1011.82 1011.93 1012.11 1012.33 1012.57 1012.82 1013.06 1013.28 1013.46 1013.60 1013.72 1013.83 1013.92 1014.03 1014.15 1014.29 1014.46 1014.64 1014.85 1015.06 1015.28 1015.49 1015.71 1015.93 1016.16 1016.39 1016.63 1016.87 1017.12 1017.36 1017.60 1017.82 1018.02
1012.44 1012.20 1012.01 1011.88 1011.82 1011.84 1011.92 1012.04 1012.20 1012.37 1012.54 1012.69 1012.82 1012.92 1013.01 1013.08 1013.15 1013.23 1013.33 1013.44 1013.57 1013.71 1013.87 1014.02 1014.17 1014.32 1014.47 1014.61 1014.78 1014.96 1015.17 1015.42 1015.70 1016.00 1016.33 1016.66 1016.97 1017.26
1012.56 1012.30 1012.10 1011.97 1011.90 1011.90 1011.94 1012.01 1012.10 1012.18 1012.26 1012.32 1012.35 1012.38 1012.40 1012.44 1012.48 1012.55 1012.64 1012.76 1012.89 1013.02 1013.14 1013.25 1013.34 1013.41 1013.48 1013.55 1013.64 1013.77 1013.95 1014.19 1014.49 1014.84 1015.23 1015.63 1016.03 1016.40
1012.71 1012.43 1012.22 1012.08 1011.99 1011.96 1011.96 1011.97 1011.98 1011.98 1011.96 1011.92 1011.87 1011.83 1011.80 1011.80 1011.83 1011.90 1012.01 1012.14 1012.28 1012.41 1012.51 1012.58 1012.62 1012.63 1012.61 1012.60 1012.62 1012.69 1012.82 1013.03 1013.32 1013.69 1014.11 1014.56 1015.00 1015.42
1012.90 1012.60 1012.36 1012.19 1012.07 1011.99 1011.93 1011.87 1011.79 1011.70 1011.59 1011.46 1011.34 1011.24 1011.17 1011.15 1011.20 1011.29 1011.43 1011.59 1011.75 1011.90 1012.00 1012.05 1012.05 1012.00 1011.92 1011.84 1011.78 1011.78 1011.85 1012.01 1012.27 1012.62 1013.03 1013.48 1013.94 1014.37
1013.11 1012.78 1012.50 1012.28 1012.10 1011.95 1011.81 1011.66 1011.50 1011.31 1011.11 1010.91 1010.73 1010.58 1010.50 1010.49 1010.56 1010.69 1010.87 1011.08 1011.29 1011.46 1011.59 1011.64 1011.61 1011.53 1011.40 1011.26 1011.14 1011.07 1011.07 1011.17 1011.38 1011.67 1012.03 1012.44 1012.87 1013.28
1013.34 1012.96 1012.62 1012.33 1012.07 1011.84 1011.60 1011.35 1011.09 1010.81 1010.53 1010.26 1010.03 1009.86 1009.78 1009.78 1009.89 1010.07 1010.31 1010.57 1010.83 1011.05 1011.21 1011.28 1011.26 1011.17 1011.02 1010.84 1010.67 1010.54 1010.49 1010.52 1010.65 1010.86 1011.15 1011.49 1011.85 1012.20
1013.54 1013.11 1012.70 1012.34 1011.99 1011.65 1011.31 1010.96 1010.60 1010.23 1009.87 1009.54 1009.27 1009.09 1009.01 1009.04 1009.17 1009.40 1009.69 1010.01 1010.32 1010.58 1010.78 1010.88 1010.89 1010.82 1010.67 1010.49 1010.30 1010.15 1010.05 1010.02 1010.07 1010.21 1010.41 1010.65 1010.92 1011.19
1013.69 1013.21 1012.74 1012.29 1011.86 1011.43 1010.99 1010.54 1010.09 1009.64 1009.21 1008.83 1008.53 1008.32 1008.24 1008.27 1008.42 1008.67 1008.99 1009.34 1009.69 1009.99 1010.23 1010.38 1010.43 1010.39 1010.28 1010.13 1009.96 1009.80 1009.68 1009.62 1009.62 1009.68 1009.79 1009.94 1010.11 1010.28
1013.76 1013.24 1012.73 1012.23 1011.73 1011.23 1010.71 1010.19 1009.66 1009.14 1008.66 1008.23 1007.88 1007.65 1007.53 1007.54 1007.68 1007.91 1008.22 1008.57 1008.92 1009.24 1009.50 1009.68 1009.78 1009.80 1009.76 1009.66 1009.55 1009.43 1009.33 1009.26 1009.23 1009.24 1009.28 1009.34 1009.42 1009.51
1013.72 1013.20 1012.69 1012.17 1011.64 1011.10 1010.54 1009.98 1009.40 1008.84 1008.31 1007.83 1007.44 1007.15 1006.98 1006.93 1007.00 1007.17 1007.41 1007.71 1008.02 1008.32 1008.58 1008.79 1008.93 1009.02 1009.05 1009.04 1009.01 1008.97 1008.93 1008.89 1008.87 1008.86 1008.86 1008.86 1008.86 1008.87
1013.58 1013.10 1012.61 1012.12 1011.61 1011.08 1010.53 1009.96 1009.37 1008.79 1008.23 1007.70 1007.26 1006.89 1006.63 1006.48 1006.44 1006.49 1006.63 1006.82 1007.05 1007.29 1007.52 1007.73 1007.91 1008.05 1008.17 1008.26 1008.34 1008.40 1008.44 1008.48 1008.50 1008.50 1008.49 1008.45 1008.41 1008.36
1013.36 1012.95 1012.53 1012.10 1011.65 1011.18 1010.67 1010.13 1009.57 1008.99 1008.41 1007.85 1007.34 1006.89 1006.52 1006.24 1006.05 1005.95 1005.93 1005.98 1006.08 1006.22 1006.39 1006.58 1006.77 1006.97 1007.17 1007.36 1007.55 1007.72 1007.88 1008.00 1008.09 1008.14 1008.14 1008.10 1008.02 1007.93
1013.08 1012.77 1012.44 1012.11 1011.75 1011.36 1010.93 1010.46 1009.94 1009.38 1008.80 1008.22 1007.65 1007.11 1006.62 1006.19 1005.84 1005.56 1005.37 1005.24 1005.20 1005.22 1005.30 1005.44 1005.62 1005.85 1006.12 1006.40 1006.70 1006.98 1007.25 1007.47 1007.64 1007.74 1007.78 1007.75 1007.67 1007.56
1012.80 1012.58 1012.36 1012.12 1011.87 1011.58 1011.24 1010.84 1010.38 1009.87 1009.31 1008.71 1008.09 1007.47 1006.87 1006.30 1005.79 1005.34 1004.96 1004.66 1004.46 1004.35 1004.33 1004.40 1004.56 1004.80 1005.10 1005.46 1005.84 1006.22 1006.58 1006.89 1007.13 1007.29 1007.37 1007.37 1007.29 1007.18
1012.54 1012.39 1012.25 1012.11 1011.94 1011.74 1011.49 1011.17 1010.78 1010.32 1009.79 1009.19 1008.55 1007.87 1007.19 1006.51 1005.86 1005.26 1004.72 1004.26 1003.91 1003.67 1003.55 1003.54 1003.66 1003.88 1004.19 1004.58 1005.01 1005.46 1005.88 1006.26 1006.56 1006.78 1006.89 1006.91 1006.86 1006.75
Thickness
5717 5718 5718 5718 5719 5720 5719 5717 5711 5706 5706 5712 5715 5719 5720 5719 5717 5715 5713 5711 5709 5708 5706 5704 5703 5702 5700 5699 5698 5698 5697 5696 5696 5695 5694 5693 5693 5692
5714 5713 5713 5714 5716 5716 5716 5715 5714 5709 5705 5710 5712 5715 5716 5716 5714 5712 5711 5709 5707 5705 5704 5702 5701 5699 5698 5697 5696 5695 5694 5694 5693 5692 5691 5690 5690 5689
5710 5709 5709 5710 5711 5711 5711 5711 5710 5709 5704 5706 5710 5711 5711 5711 5709 5709 5708 5706 5704 5703 5701 5700 5698 5697 5695 5694 5693 5692 5691 5691 5690 5689 5688 5687 5687 5686
5705 5705 5705 5706 5705 5705 5706 5706 5706 5706 5704 5701 5703 5705 5706 5707 5706 5705 5705 5704 5703 5701 5699 5697 5696 5694 5693 5692 5691 5689 5689 5688 5687 5686 5685 5684 5684 5683
5701 5700 5700 5700 5699 5700 5700 5701 5702 5703 5702 5699 5699 5701 5701 5702 5701 5701 5701 5700 5700 5699 5697 5695 5693 5691 5690 5689 5688 5687 5686 5685 5684 5683 5682 5681 5680 5680
5697 5697 5696 5696 5695 5695 5696 5696 5697 5696 5696 5695 5694 5695 5695 5696 5695 5693 5692 5694 5695 5695 5693 5692 5690 5689 5688 5687 5685 5684 5682 5681 5681 5680 5679 5678 5677 5676
5692 5693 5693 5693 5692 5692 5692 5691 5691 5690 5689 5689 5688 5688 5689 5688 5687 5688 5687 5687 5689 5690 5688 5688 5686 5685 5684 5683 5682 5681 5680 5678 5677 5677 5676 5675 5674 5673
5686 5688 5689 5689 5688 5687 5686 5686 5686 5685 5684 5683 5682 5682 5682 5684 5684 5683 5682 5680 5679 5685 5683 5682 5684 5682 5682 5681 5680 5679 5677 5676 5675 5673 5672 5671 5670 5669
5682 5682 5684 5685 5683 5682 5682 5681 5681 5681 5681 5679 5678 5678 5678 5679 5678 5677 5676 5676 5675 5679 5678 5676 5679 5678 5680 5679 5678 5676 5674 5673 5671 5670 5668 5667 5666 5665
5677 5677 5677 5677 5677 5676 5676 5676 5676 5677 5677 5676 5676 5676 5676 5675 5674 5673 5673 5673 5674 5676 5675 5670 5673 5674 5676 5674 5674 5672 5671 5669 5667 5666 5664 5662 5661 5660
5670 5671 5671 5671 5669 5668 5668 5668 5669 5669 5671 5671 5672 5672 5671 5670 5669 5667 5666 5665 5665 5668 5670 5667 5668 5668 5669 5669 5669 5668 5666 5665 5662 5661 5659 5658 5656 5654
5663 5664 5664 5663 5662 5662 5661 5661 5661 5662 5663 5664 5663 5664 5664 5665 5664 5662 5661 5659 5659 5659 5664 5662 5661 5661 5659 5663 5663 5661 5660 5658 5657 5655 5654 5652 5650 5648
5656 5656 5657 5656 5656 5655 5655 5656 5656 5656 5656 5656 5656 5657 5658 5659 5659 5659 5658 5656 5654 5654 5658 5657 5655 5655 5653 5653 5656 5655 5654 5653 5651 5649 5647 5646 5644 5642
5647 5649 5649 5649 5649 5649 5650 5650 5649 5649 5649 5649 5649 5650 5651 5652 5653 5654 5653 5652 5652 5651 5652 5651 5650 5648 5646 5645 5647 5649 5648 5647 5645 5644 5642 5641 5638 5637
5639 5639 5639 5641 5642 5643 5644 5644 5643 5642 5642 5642 5642 5643 5645 5646 5647 5647 5647 5646 5646 5646 5647 5646 5645 5644 5642 5640 5640 5641 5640 5640 5639 5638 5636 5635 5633 5630
5631 5631 5632 5633 5634 5636 5637 5637 5637 5637 5637 5636 5636 5637 5639 5639 5639 5639 5638 5637 5636 5637 5639 5639 5639 5638 5635 5635 5634 5633 5633 5632 5632 5632 5630 5628 5626 5624
5623 5624 5625 5627 5628 5629 5630 5630 5630 5630 5630 5630 5630 5629 5630 5631 5631 5631 5630 5629 5627 5627 5628 5630 5631 5630 5629 5627 5625 5625 5625 5625 5624 5624 5622 5620 5619 5618
5618 5618 5619 5620 5621 5622 5622 5622 5623 5623 5623 5624 5623 5623 5623 5622 5622 5622 5621 5620 5619 5619 5620 5621 5621 5620 5619 5619 5619 5618 5618 5617 5617 5617 5615 5612 5611 5611
5612 5613 5613 5614 5615 5615 5615 5615 5615 5616 5616 5617 5616 5616 5615 5615 5614 5613 5612 5612 5611 5611 5612 5614 5613 5612 5610 5610 5611 5612 5611 5610 5609 5609 5608 5606 5604 5603
5608 5608 5609 5609 5609 5609 5609 5608 5609 5609 5609 5609 5609 5609 5608 5607 5607 5606 5605 5604 5604 5604 5605 5606 5605 5605 5604 5604 5604 5604 5604 5603 5602 5601 5600 5598 5596 5596
5604 5604 5604 5604 5604 5603 5602 5602 5603 5603 5603 5602 5602 5602 5601 5600 5599 5599 5598 5598 5598 5598 5598 5599 5600 5600 5600 5599 5597 5596 5596 5596 5596 5593 5592 5590 5588 5587
5600 5599 5600 5599 5599 5599 5598 5597 5597 5597 5596 5596 5596 5595 5595 5594 5593 5593 5593 5593 5593 5593 5593 5594 5594 5594 5592 5591 5589 5588 5587 5587 5587 5586 5586 5585 5583 5581
5596 5595 5595 5594 5594 5594 5593 5593 5592 5592 5591 5590 5590 5590 5589 5587 5587 5587 5587 5588 5588 5588 5587 5587 5587 5587 5586 5584 5583 5581 5580 5579 5578 5578 5577 5578 5577 5577